Regional Weather Roundup
Issued by NWS

Home | Current Version | Previous Version | Text Only | Print | Product List | Glossary Off
Versions: 1 2 3 4 5 6 7 8 9 10 11 12 13 14 15 16 17 18 19 20 21 22 23 24 25 26 27 28 29 30 31 32 33 34 35 36 37 38 39 40 41 42 43 44 45 46 47 48 49 50

390
ASUS43 KOAX 240710
RWRNE

WEATHER ROUNDUP FOR NEBRASKA
NATIONAL WEATHER SERVICE OMAHA NE
100 AM CST WED JAN 24 2018

NOTES: SATELLITE DATA IS BEING USED TO AUGMENT CLOUD COVER ABOVE
       12000 FEET.
       "FAIR" INDICATES FEW OR NO CLOUDS BELOW 12,000 FEET WITH NO
       SIGNIFICANT WEATHER AND/OR OBSTRUCTIONS TO VISIBILITY.


NEZ001>004-019>022-054>056-240800-
NEBRASKA PANHANDLE

CITY           SKY/WX    TMP DP  RH WIND       PRES   REMARKS
SCOTTSBLUFF    CLEAR     10   7  87 CALM      30.22F
ALLIANCE       CLEAR      5   3  91 W7        30.21F WCI  -7
CHADRON        CLEAR      7   4  87 SW5       30.20F WCI  -2
GORDON         FAIR      13   7  76 W3        30.18F
KIMBALL        CLEAR     14   9  80 SW10      30.22F WCI   1
SIDNEY         CLEAR      9   6  88 SW10      30.25S WCI  -5
$$

NEZ057>060-069>072-079>082-240800-
SOUTHWEST NEBRASKA

CITY           SKY/WX    TMP DP  RH WIND       PRES   REMARKS
NORTH PLATTE   CLEAR     10   6  84 NW7       30.27F WCI  -1
IMPERIAL       CLEAR     19  12  74 W12       30.29S WCI   7
LEXINGTON      CLEAR     19  15  84 W9        30.27F WCI   8
MCCOOK         CLEAR     21  15  78 W12       30.31S WCI   9
OGALLALA       CLEAR     15  10  80 W9        30.28S WCI   4
$$

NEZ005>010-023>029-035>040-094-240800-
NORTH CENTRAL NEBRASKA

CITY           SKY/WX    TMP DP  RH WIND       PRES   REMARKS
VALENTINE      CLEAR     21  15  78 W8        30.22F WCI  11
AINSWORTH      CLEAR     21  17  84 CALM      30.22F
BROKEN BOW     CLEAR     28  18  66 NW13      30.25R WCI  17
O`NEILL        CLEAR     24  20  86 W8        30.22S WCI  15
ORD            CLEAR     26  19  74 NW8       30.24R WCI  18
THEDFORD       CLEAR     18  13  82 W7        30.25S WCI   8
$$

NEZ041-046>049-061>064-073>077-083>087-240800-
SOUTH CENTRAL NEBRASKA

CITY           SKY/WX    TMP DP  RH WIND       PRES   REMARKS
GRAND ISLAND   CLEAR     24  20  84 W10       30.26R WCI  14
AURORA         CLEAR     26  21  83 NW9       30.25S WCI  16
HASTINGS       CLEAR     26  20  77 W13       30.27R WCI  15
HEBRON         CLEAR     28  25  86 W5        30.27S WCI  23
HOLDREGE       CLEAR     28  22  78 NW7       30.27S WCI  21
KEARNEY        CLEAR     26  20  77 NW7       30.27S WCI  18
YORK           CLEAR     25  25 100 W13       30.25R WCI  13
$$

NEZ011>018-030>034-042>045-240800-
NORTHEAST NEBRASKA

CITY           SKY/WX    TMP DP  RH WIND       PRES   REMARKS
ALBION         CLEAR     24  20  83 CALM      30.24R
BLAIR          CLEAR     22  21  93 W6        30.21S WCI  15
COLUMBUS       CLEAR     18  17  96 W6        30.25R WCI  10
FREMONT        CLEAR     16  15  96 W7        30.23R WCI   6
TEKAMAH        CLEAR     15  14  95 CALM      30.23R FOG
WAYNE            N/A     12  11  96 S3        30.21S FOG
$$

NEZ050>053-065>068-078-088>093-240800-
SOUTHEAST NEBRASKA

CITY           SKY/WX    TMP DP  RH WIND       PRES   REMARKS
LINCOLN        CLEAR     23  20  88 CALM      30.25R
OMAHA EPPLEY   CLEAR     20  19  96 E3        30.23S
BEATRICE       CLEAR     27  26  94 W7        30.25S WCI  20
FALLS CITY     CLEAR     26  23  88 W6        30.24S WCI  19
NEBRASKA CITY  CLEAR     28  28  99 W8        30.22S WCI  20
PLATTSMOUTH    CLEAR     25  23  93 W9        30.22S WCI  15
$$

NEZ044-045-051>053-067-240800-
OMAHA AREA

CITY           SKY/WX    TMP DP  RH WIND       PRES   REMARKS
OMAHA EPPLEY   CLEAR     20  19  96 E3        30.23S
BLAIR          CLEAR     22  21  93 W6        30.21S WCI  15
FREMONT        CLEAR     16  15  96 W7        30.23R WCI   6
MILLARD        CLEAR     20  18  92 CALM      30.24S FOG
OFFUTT AFB     CLEAR     20  18  93 CALM      30.23S
PLATTSMOUTH    CLEAR     25  23  93 W9        30.22S WCI  15
WAHOO          FOG       18  15  90 CALM      30.23S VSB 1/2
$$




USA.gov is the U.S. government's official web portal to all federal, state and local government web resources and services.